FW2344 Weather Reports


time (UTC)temp
C
wind
direction
speed
KPH
gust
KPH
rain 1hr
cm
rain 24hr
cm
rain mn
cm
humidity
%
barometer
mb
20260504081535 2 341 0.0 0.0 0.00 0.00 0.00 92 1013.4
20260504050009 2 341 0.0 0.0 0.00 0.00 0.00 89 1013.1
20260504044507 2 341 0.0 0.0 0.00 0.00 0.00 88 1012.9
20260504043004 3 341 0.0 0.0 0.00 0.00 0.00 88 1013.0
20260504041503 3 341 0.0 0.0 0.00 0.00 0.00 87 1012.9
20260504034559 3 341 0.0 0.0 0.00 0.00 0.00 85 1012.7
20260504033116 4 341 0.0 0.0 0.00 0.00 0.00 84 1012.7
20260504031603 4 341 0.0 0.0 0.00 0.00 0.00 81 1012.8
20260504030056 5 341 0.0 0.0 0.00 0.00 0.00 77 1012.7
20260504024601 5 341 0.0 0.0 0.00 0.00 0.00 76 1012.7
20260504023056 5 341 0.0 0.0 0.00 0.00 0.00 73 1012.7
20260504021555 6 341 0.0 0.0 0.00 0.00 0.00 71 1012.7
20260504020053 6 341 0.0 0.0 0.00 0.00 0.00 69 1012.8
20260504014552 7 341 0.0 0.0 0.00 0.00 0.00 68 1012.7
20260504013105 7 341 0.0 0.0 0.00 0.00 0.00 63 1012.6
20260504011552 8 341 0.0 0.0 0.00 0.00 0.00 65 1012.5
20260504010052 8 341 0.0 0.0 0.00 0.00 0.00 62 1012.3
20260504004601 9 341 0.0 0.0 0.00 0.00 0.00 57 1012.2
20260504003049 10 340 0.0 0.0 0.00 0.00 0.00 54 1012.1
20260504001548 11 341 0.0 0.0 0.00 0.00 0.00 50 1011.8
20260504000050 12 341 0.0 1.6 0.00 0.00 0.00 44 1011.5
20260503234546 12 346 0.0 3.2 0.00 0.00 0.00 41 1011.3
20260503233045 13 345 0.0 4.8 0.00 0.00 0.00 40 1011.3
20260503231551 13 261 0.0 9.7 0.00 0.00 0.00 39 1011.1
20260503230042 13 335 1.6 6.4 0.00 0.00 0.00 37 1010.9
20260503224542 13 245 0.0 6.4 0.00 0.00 0.00 35 1010.9
20260503223041 13 334 0.0 4.8 0.00 0.00 0.00 35 1010.8
20260503221539 13 351 0.0 6.4 0.00 0.00 0.00 34 1010.7
20260503220040 14 352 1.6 4.8 0.00 0.00 0.00 33 1010.7
20260503214537 14 359 0.0 11.3 0.00 0.00 0.00 34 1010.6
20260503213036 13 336 0.0 14.5 0.00 0.00 0.00 34 1010.6
20260503211539 14 316 0.0 4.8 0.00 0.00 0.00 36 1010.5
20260503210033 13 5 1.6 8.0 0.00 0.00 0.00 36 1010.6
20260503204533 13 324 1.6 11.3 0.00 0.00 0.00 36 1010.7
20260503203031 14 339 1.6 8.0 0.00 0.00 0.00 38 1010.7
20260503201529 15 6 0.0 6.4 0.00 0.00 0.00 39 1010.8
20260503200026 15 9 0.0 6.4 0.00 0.00 0.00 40 1011.0
20260503194522 13 71 0.0 3.2 0.00 0.00 0.00 43 1011.0
20260503193034 12 295 0.0 4.8 0.00 0.00 0.00 44 1011.3
20260503191518 12 302 1.6 8.0 0.00 0.00 0.00 42 1011.4
20260503190030 13 348 0.0 6.4 0.00 0.00 0.00 41 1011.4
20260503184516 12 331 1.6 6.4 0.00 0.00 0.00 45 1011.5
20260503183010 12 304 3.2 8.0 0.00 0.00 0.00 44 1012.0
20260503181509 12 325 4.8 19.3 0.00 0.00 0.00 44 1011.9
20260503180007 12 19 3.2 8.0 0.00 0.00 0.00 47 1011.8
20260503174507 11 105 0.0 9.7 0.00 0.00 0.00 49 1011.9
20260503173015 11 334 0.0 6.4 0.00 0.00 0.00 49 1012.0
20260503171505 11 35 1.6 8.0 0.00 0.00 0.00 45 1012.1